Regional Weather Roundup
Issued by NWS Kansas City/Pleasant Hill, MO

Home | Current Version | Previous Version | Text Only | Print | Product List | Glossary On
Versions: 1 2 3 4 5 6 7 8 9 10 11 12 13 14 15 16 17 18 19 20 21 22 23 24 25 26 27 28 29 30 31 32 33 34 35 36 37 38 39 40 41 42 43 44 45 46 47 48 49 50
000
ASUS43 KEAX 201010
RWREAX

WEATHER ROUNDUP FOR EASTERN KANSAS AND NORTHWEST MISSOURI
NATIONAL WEATHER SERVICE KANSAS CITY/PLEASANT HILL MO
500 AM CDT MON OCT 20 2014

KSZ040-057-103>105-MOZ028-029-037-043-201100-
...KANSAS CITY METROPOLITAN AREA...

CITY           SKY/WX    TMP DP  RH WIND       PRES   REMARKS
K.C. INTL      CLEAR     51  49  92 SW7       29.98F
K.C. DOWNTOWN  CLEAR     55  51  86 CALM      29.98F
LEES SUMMIT    CLEAR     53  50  89 SW8       29.99F
OLATHE - IXD   CLEAR     51  50  96 SW5       30.01S
OLATHE - OJC   CLEAR     53  52  96 SW3       29.99F
LAWRENCE       CLEAR     45  44  97 CALM      30.00F

$$

MOZ001>008-011>017-020>025-030>033-038>040-044>046-053-054-201100-
...NORTHERN AND CENTRAL MISSOURI...

CITY           SKY/WX    TMP DP  RH WIND       PRES   REMARKS
ST. JOSEPH     FOG       42  42 100 CALM      29.99S VSB 3/4
MOSBY          SUNNY     45  45 100 CALM      29.98F
WHITEMAN AFB   PTCLDY    55  52  88 SW8       29.99S
CLINTON        CLEAR     54  52  94 CALM      30.01S
SEDALIA        MOCLDY    55  51  86 SW10      30.00S
WARSAW         NOT AVBL
MARSHALL       CLEAR     55  54  94 SW5       29.99S
CHILLICOTHE      N/A     54  49  83 CALM      29.97S
MOBERLY        CLEAR     52  46  82 SW6       29.97S
KIRKSVILLE     CLEAR     54  49  83 W9        29.95S

$$

MOZ041-047>049-056>058-063>065-088>090-097-201100-
...EASTERN AND SOUTHERN MISSOURI...

CITY           SKY/WX    TMP DP  RH WIND       PRES   REMARKS
ST. LOUIS INTL PTCLDY    56  47  71 SW3       29.97F
SPIRIT OF STL  PTCLDY    55  47  74 SW8       29.97F
COLUMBIA       CLEAR     50  49  96 SW6       29.98F
JEFFERSON CITY CLEAR     49  47  93 CALM      29.99F
MEXICO         CLEAR     55  55 100 W9        29.96F
HANNIBAL       CLEAR     55  48  76 W10       29.93S
ROLLA          CLEAR     50  45  83 SW9       29.99F
LEBANON        CLEAR     57  50  77 W9        30.02S
OSAGE BEACH    CLOUDY    48  45  87 CALM      30.01S
SPRINGFIELD    CLOUDY    54  51  90 S5        30.03S
BRANSON        MOCLDY    54  50  87 CALM      30.05F
NEVADA         PTCLDY    55  52  88 S6        30.02F
JOPLIN         CLOUDY    58  53  84 S7        30.04S
WEST PLAINS    MOCLDY    52  47  83 W5        30.04F

$$

IAZ060-094-KSZ022-034>040-054-083-096-NEZ052-066-093-201100-
...KANSAS...SOUTHEAST NEBRASKA AND IOWA...

CITY           SKY/WX    TMP DP  RH WIND       PRES   REMARKS
TOPEKA         CLEAR     49  49 100 CALM      30.01S FOG
MANHATTAN      CLEAR     46  45  96 CALM      30.01S FOG
EMPORIA        CLEAR     52  51  97 CALM      30.01S
CHANUTE        CLOUDY    58  54  86 S6        30.02S
WICHITA        PTCLDY    58  54  86 CALM      30.01R
OMAHA          CLEAR     49  45  86 N7        30.00R
LINCOLN        CLEAR     45  42  89 CALM      30.02R
FALLS CITY     CLEAR     51  48  89 W7        29.97F
LAMONI         CLEAR     49  45  86 W7        29.96R
DES MOINES     CLEAR     50  44  80 N7        29.97R

$$



USA.gov is the U.S. government's official web portal to all federal, state and local government web resources and services.